Time,TemperatureF,DewpointF,PressureIn,WindDirection,WindDirectionDegrees,WindSpeedMPH,WindSpeedGustMPH,Humidity,HourlyPrecipIn,Conditions,Clouds,dailyrainin,SoftwareType,DateUTC
2013-09-16 00:14:00,57.0,56.0,30.10,SSE,168,0.0,0.0,95,0.00,,,-99.99,,2013-09-16 04:14:00,
2013-09-16 00:24:00,57.0,56.0,30.10,SSE,168,0.0,0.0,95,0.00,,,-99.99,,2013-09-16 04:24:00,
2013-09-16 00:54:00,57.0,56.0,30.10,SSE,168,0.0,0.0,95,0.00,,,-99.99,,2013-09-16 04:54:00,
2013-09-16 01:22:00,57.0,56.0,30.09,SSE,168,0.0,0.0,96,0.00,,,-99.99,,2013-09-16 05:22:00,
2013-09-16 01:53:00,58.0,57.0,30.09,SSE,168,0.0,0.0,96,0.00,,,-99.99,,2013-09-16 05:53:00,
2013-09-16 02:22:00,58.0,57.0,30.09,SSE,168,0.0,0.0,97,0.00,,,-99.99,,2013-09-16 06:22:00,
2013-09-16 02:52:00,58.0,57.0,30.09,SSE,168,0.0,0.0,97,0.00,,,-99.99,,2013-09-16 06:52:00,
2013-09-16 03:22:00,58.0,57.0,30.09,SSE,168,0.0,0.0,97,0.00,,,-99.99,,2013-09-16 07:22:00,
2013-09-16 03:52:00,58.0,57.0,30.09,South,182,0.0,7.0,98,0.00,,,-99.99,,2013-09-16 07:52:00,
2013-09-16 04:22:00,57.0,56.0,30.09,SSE,150,1.0,9.0,98,0.00,,,-99.99,,2013-09-16 08:22:00,
2013-09-16 04:52:00,57.0,57.0,30.09,ENE,69,0.0,6.0,99,0.05,,,-99.99,,2013-09-16 08:52:00,
2013-09-16 05:22:00,56.0,56.0,30.14,East,83,0.0,7.0,99,0.05,,,-99.99,,2013-09-16 09:22:00,
2013-09-16 05:53:00,55.0,55.0,30.14,WSW,244,0.0,0.0,100,0.15,,,-99.99,,2013-09-16 09:53:00,
2013-09-16 06:23:00,55.0,55.0,30.14,WSW,244,0.0,0.0,100,0.15,,,-99.99,,2013-09-16 10:23:00,
2013-09-16 06:53:00,55.0,55.0,30.14,WSW,244,0.0,0.0,100,0.06,,,-99.99,,2013-09-16 10:53:00,
2013-09-16 07:22:00,55.0,55.0,30.11,WSW,244,0.0,0.0,100,0.06,,,-99.99,,2013-09-16 11:22:00,
2013-09-16 07:52:00,55.0,55.0,30.14,WSW,244,0.0,0.0,100,0.01,,,-99.99,,2013-09-16 11:52:00,
2013-09-16 08:22:00,56.0,56.0,30.14,WSW,244,0.0,0.0,100,0.01,,,-99.99,,2013-09-16 12:22:00,
2013-09-16 08:52:00,56.0,56.0,30.15,WSW,244,0.0,0.0,100,0.00,,,-99.99,,2013-09-16 12:52:00,
2013-09-16 09:22:00,56.0,56.0,30.16,WSW,244,0.0,0.0,100,0.00,,,-99.99,,2013-09-16 13:22:00,
2013-09-16 09:52:00,56.0,56.0,30.16,WSW,244,0.0,0.0,100,0.00,,,-99.99,,2013-09-16 13:52:00,
2013-09-16 10:22:00,57.0,57.0,30.18,NE,39,0.0,3.0,100,0.00,,,-99.99,,2013-09-16 14:22:00,
2013-09-16 10:52:00,57.0,57.0,30.18,NNE,20,0.0,3.0,99,0.00,,,-99.99,,2013-09-16 14:52:00,
2013-09-16 11:22:00,57.0,57.0,30.19,South,187,1.0,7.0,99,0.00,,,-99.99,,2013-09-16 15:22:00,
2013-09-16 11:33:00,57.0,57.0,30.19,South,187,1.0,7.0,99,0.00,,,-99.99,,2013-09-16 15:33:00,
2013-09-16 11:53:00,57.0,57.0,30.19,South,187,1.0,7.0,99,0.00,,,-99.99,,2013-09-16 15:53:00,
2013-09-16 12:52:00,60.0,58.0,30.20,NE,48,1.0,6.0,94,0.00,,,-99.99,,2013-09-16 16:52:00,
2013-09-16 13:23:00,61.0,58.0,30.20,ENE,57,2.0,8.0,90,0.00,,,-99.99,,2013-09-16 17:23:00,
2013-09-16 13:53:00,60.0,57.0,30.20,SE,135,2.0,7.0,89,0.00,,,-99.99,,2013-09-16 17:53:00,
2013-09-16 14:22:00,62.0,58.0,30.22,SSE,147,1.0,6.0,86,0.00,,,-99.99,,2013-09-16 18:22:00,
2013-09-16 14:52:00,61.0,57.0,30.20,SE,139,2.0,7.0,88,0.00,,,-99.99,,2013-09-16 18:52:00,
2013-09-16 15:22:00,62.0,57.0,30.20,ENE,57,2.0,7.0,83,0.00,,,-99.99,,2013-09-16 19:22:00,
2013-09-16 15:53:00,64.0,59.0,30.19,SSE,147,4.0,13.0,83,0.00,,,-99.99,,2013-09-16 19:53:00,
2013-09-16 16:22:00,65.0,59.0,30.19,ENE,59,2.0,8.0,82,0.00,,,-99.99,,2013-09-16 20:22:00,
2013-09-16 16:52:00,66.0,60.0,30.19,ESE,116,2.0,8.0,80,0.00,,,-99.99,,2013-09-16 20:52:00,
2013-09-16 17:22:00,65.0,59.0,30.18,South,169,4.0,12.0,80,0.00,,,-99.99,,2013-09-16 21:22:00,
2013-09-16 17:56:00,65.0,58.0,30.19,SE,146,4.0,12.0,78,0.00,,,-99.99,,2013-09-16 21:56:00,
2013-09-16 18:24:00,64.0,58.0,30.20,SSW,195,2.0,9.0,80,0.00,,,-99.99,,2013-09-16 22:24:00,
2013-09-16 18:53:00,63.0,58.0,30.20,East,100,1.0,7.0,83,0.00,,,-99.99,,2013-09-16 22:53:00,
2013-09-16 19:22:00,61.0,57.0,30.22,South,172,0.0,0.0,88,0.00,,,-99.99,,2013-09-16 23:22:00,
2013-09-16 19:52:00,60.0,57.0,30.22,South,172,0.0,0.0,90,0.00,,,-99.99,,2013-09-16 23:52:00,
2013-09-16 20:22:00,59.0,57.0,30.22,NNE,25,0.0,3.0,92,0.00,,,-99.99,,2013-09-17 00:22:00,
2013-09-16 20:52:00,59.0,57.0,30.24,NE,45,0.0,0.0,93,0.00,,,-99.99,,2013-09-17 00:52:00,
2013-09-16 21:11:00,59.0,57.0,30.24,NE,45,0.0,0.0,93,0.00,,,-99.99,,2013-09-17 01:11:00,
2013-09-16 21:21:00,59.0,57.0,30.24,NE,45,0.0,0.0,93,0.00,,,-99.99,,2013-09-17 01:21:00,
2013-09-16 21:52:00,58.0,56.0,30.25,NE,45,0.0,0.0,94,0.00,,,-99.99,,2013-09-17 01:52:00,
2013-09-16 22:03:00,58.0,56.0,30.25,NE,45,0.0,0.0,94,0.00,,,-99.99,,2013-09-17 02:03:00,
2013-09-16 22:22:00,57.0,55.0,30.27,NE,35,0.0,5.0,93,0.00,,,-99.99,,2013-09-17 02:22:00,
2013-09-16 22:32:00,57.0,55.0,30.27,NE,35,0.0,5.0,93,0.00,,,-99.99,,2013-09-17 02:32:00,
2013-09-16 22:42:00,57.0,55.0,30.27,NE,35,0.0,5.0,93,0.00,,,-99.99,,2013-09-17 02:42:00,
2013-09-16 22:53:00,57.0,55.0,30.27,NE,48,0.0,6.0,93,0.00,,,-99.99,,2013-09-17 02:53:00,
2013-09-16 23:02:00,57.0,55.0,30.27,NE,48,0.0,6.0,93,0.00,,,-99.99,,2013-09-17 03:02:00,
2013-09-16 23:23:00,56.0,54.0,30.29,NNE,24,0.0,6.0,94,0.00,,,-99.99,,2013-09-17 03:23:00,
2013-09-16 23:54:00,56.0,54.0,30.29,NNE,31,0.0,5.0,94,0.00,,,-99.99,,2013-09-17 03:54:00,